星链-4623 (STARLINK-4623 )

导读

STARLINK-4623是美国SpaceX公司于2023年1月19日发射的星链系列卫星,属于全球规模最大低轨卫星互联网星座的一员。卫星运行于约550公里高度的近地轨道,单星质量约300千克,由猎鹰9火箭执行发射任务。它为全球偏远、网络基础设施匮乏区域提供高速低延迟宽带互联网接入,助力星链星座实现全球网络覆盖目标。

基本信息
目录编号:
55315
目录名称:
STARLINK-4623
国际标识:
2023-010AY
轨道中心:
EARTH
卫星名称:
星链-4623
卫星全名:
星链-4623 (STARLINK-4623 )
卫星状态:
在轨 (已飞行1325 天)
发射日期:
2023-01-19 UTC
国别 :
美国 (US)
星等 :
--
轨道信息
数据来源 国际轨道数据
星历时间: 2026-09-04T10:29:37+0800
1天前
查看轨道信息
半长轴: 6950.193km
偏心率: 0.0003521
轨道倾角: 69.999°
近地点辐角 270.937°
升交点赤经 294.620°
平近点角 89.138°
近地点: 569.608km
远地点: 574.504km
周期: 96.107分钟
每日圈数: 14.983302
详细信息
固有亮度:
5
最大亮度:
2.5
卫星平台:
Starlink v1.5
覆盖范围:
全球
运营商:
太空探索技术公司
运营商所在国:
美国
制造商(研发单位):
太空探索技术公司
制造商所在国:
美国
使用方式:
暂无
卫星简介
星链(Starlink)计划是由太空探索技术公司(SpaceX)提出的一个巨型低轨卫星互联网星座项目,计划在2019年至2024年间在太空搭建由约1.2万颗卫星组成的“星链”网络,其中1584颗将部署在地球上空550千米处的近地轨道,并从2020年开始工作。该卫星仍在工作。
2D轨道图
3D轨道图
轨道高度分析图
轨道倾角分析图
轨道综合分析图
查看轨道综合分析图
交会数据列表
事件ID 空间交会对象 最接近时刻(TCA) 交会距离 交会风险概率(CRP) 交会风险指数(CRI) 操作
CDM_260907-082004-389005-531522
GRUS-1A (43890)
2026-09-07T
08:20:13+0000
1.261 km
极远距离
1.223946E-5 中风险 0.57
CDM_260904-215700-471205-531525
2026-09-04T
21:57:06+0000
2.176 km
极远距离
2.07463E-6 低风险 0.41
CDM_260903-044305-531506-973425
2026-09-03T
04:43:12+0000
2.533 km
极远距离
1.701801E-6 低风险 0.4